Starlink 31646

operational
NORAD ID: 59265 Int'l Des: 2024-050 Owner: SPXS Country: US Constellation: starlink
LEOCIRCULAR

关于 Starlink 31646

正在加载描述...

实时位置

正在加载3D地球...

即将过境

高度历史

Altitude vs Time

uPlot chart will show altitude changes over time

两行轨道根数

1 59265U 24050M 25306.50690512 .00003887 00000-0 14334-3 0 9996
2 59265 53.1607 51.9333 0001228 84.9963 275.1178 15.30192019 91076
Epoch: Nov 2, 2025 • Age: 24 hours

当前状态

高度 478.6 km
速度 7.63 km/s
星下点 42.11°N, 41.3°W
发射日期 Mar 19, 2024
运行时间 1.6 years
类型 internet

技术详情

分类 Payload
质量 730.00 kg
干质量 700.00 kg
总质量 730.00 kg
长度 0.30 m
直径 4.10 m
跨度 29.00 m
形状 Box + pan
制造商 SPXS
平台类型 Starlink V2M
阶段状态 In Orbit
所有者/国家 SPXS/US

大型星座

Loading constellations...